[[[{"header":{"parameterUnit":"kt","parameterCategory":2,"dx":1,"dy":1,"la1":30.253999710083008,"la2":30.299108505249023,"lo1":-89.0895004272461,"lo2":-89.04439544677734,"nx":28,"ny":28,"refTime":"2022-10-30T21:00:00:Z","depth":0,"parameterNumber":1,"parameterNumberName":"U-component_of_WINDS"},"data":[2.0064,2.0139,2.0164,2.026,2.0299,2.0368,2.0401,2.0445,2.0487,2.0572,2.0625,2.0658,2.0708,2.0777,2.0836,2.0849,2.087,2.0879,2.0892,2.0835,2.0829,2.0823,2.0806,2.0884,2.0884,2.0946,2.0947,2.0947,2.0017,2.0056,2.0115,2.0189,2.0239,2.0246,2.0304,2.0345,2.0407,2.046,2.0514,2.0591,2.0655,2.0705,2.077,2.0804,2.0811,2.082,2.0817,2.0824,2.0765,2.0747,2.0814,2.0814,2.0814,2.0814,2.0814,2.0814,1.9938,1.9983,2.0042,2.0106,2.015,2.0199,2.0245,2.0284,2.0342,2.0414,2.0433,2.0503,2.056,2.0652,2.0689,2.0744,2.0738,2.0755,2.0759,2.0762,2.0762,2.0664,2.0756,2.0756,2.0756,2.0756,2.0756,0,1.9888,1.9905,1.9964,2.003,2.0078,2.0132,2.0185,2.0214,2.026,2.0306,2.0374,2.0417,2.0502,2.0568,2.0636,2.0671,2.0682,2.0687,2.0699,2.0689,2.0671,2.0678,2.0578,2.0683,2.0683,2.0683,2.0682,2.0682,1.9807,1.9857,1.9932,1.9969,2.0005,2.0066,2.0107,2.0144,2.0186,2.0256,2.0294,2.0361,2.0417,2.0522,2.0567,2.063,2.0636,2.0673,2.0645,2.0634,2.0633,2.0629,2.0633,2.0677,2.0677,2.0678,2.0678,0,1.9759,1.98,1.9886,1.9955,1.9974,2.0024,2.0083,2.0129,2.0162,2.023,2.0248,2.03,2.0366,2.0406,2.049,2.0508,2.0588,2.0594,2.0568,2.057,2.0605,2.06,2.0719,2.0735,2.0657,2.0658,2.0659,0,1.9705,1.977,1.9827,1.9875,1.9947,1.9983,2.0054,2.0089,2.014,2.0194,2.0213,2.0263,2.0307,2.0362,2.039,2.0463,2.0479,2.0497,2.0503,2.0494,2.0491,2.0514,2.0509,2.0518,2.0517,2.0517,2.0516,0,1.9623,1.9731,1.9809,1.984,1.9921,1.9956,1.9991,2.0049,2.0089,2.0148,2.0174,2.024,2.0275,2.0326,2.036,2.0339,2.0451,2.043,2.0469,2.0468,2.049,2.0487,2.0584,2.0516,2.0515,2.0515,2.0515,0,1.9585,1.9645,1.9753,1.982,1.9847,1.9899,1.9965,2.0019,2.0079,2.0099,2.0146,2.0163,2.0232,2.0208,2.0303,2.0266,2.03,2.0324,2.0328,2.0334,2.0305,2.0351,2.0441,2.0451,2.0342,2.0341,2.0339,0,1.9479,1.9599,1.9631,1.9733,1.9794,1.9811,1.987,1.9922,1.9954,2.001,2.0046,2.011,2.0101,2.0126,2.0168,2.0207,2.0255,2.0202,2.0279,2.0282,2.026,2.0345,2.0347,2.0418,2.0322,2.0324,2.0325,0,1.9401,1.95,1.9516,1.9552,1.9628,1.968,1.9748,1.9819,1.9854,1.9912,1.9968,2.006,2.0056,2.0098,2.012,2.0161,2.0224,2.0151,2.0153,2.0161,2.0317,2.0318,2.033,2.0229,2.0231,2.0233,2.0311,0,1.9329,1.9396,1.9442,1.9523,1.957,1.9637,1.968,1.9723,1.9738,1.9771,1.9856,1.9911,1.9984,2.0009,2.0025,2.011,2.0101,2.0097,2.0074,2.013,2.0157,2.0168,2.0031,2.003,2.003,2.003,0,0,1.9215,1.9312,1.9346,1.9413,1.9454,1.9471,1.9538,1.9581,1.9665,1.9693,1.9681,1.9818,1.9864,1.9962,1.9983,2.0014,2.0032,2.0011,2.0104,2.0112,2.012,2.0147,2.0158,2.0029,2.0029,2.0029,2.0029,0,1.9197,1.9245,1.9312,1.9357,1.9425,1.9457,1.9473,1.9544,1.9568,1.9653,1.9665,1.9721,1.9832,1.9876,1.9914,2.0001,2.0006,2.0021,2.0052,2.0099,2.0108,2.0115,2.0144,2.0154,2.0028,2.0028,2.0028,0,1.9126,1.9179,1.9216,1.9312,1.9357,1.942,1.9407,1.9475,1.9522,1.9538,1.9621,1.9657,1.9722,1.9811,1.9853,1.9843,1.998,1.9946,1.9949,1.9954,2.0002,2.0012,2.0021,1.9901,1.99,1.9899,0,0,1.9105,1.9168,1.9235,1.9312,1.9339,1.9388,1.9426,1.9446,1.9504,1.9527,1.9574,1.963,1.9694,1.9735,1.9798,1.989,1.9905,1.9928,1.9934,1.9939,1.9946,1.9995,2.0005,1.9897,1.9897,1.9897,0,0,1.9094,1.9176,1.9181,1.9275,1.933,1.9402,1.9446,1.9454,1.9515,1.9512,1.9549,1.9565,1.9649,1.9685,1.9648,1.979,1.9767,1.9777,1.9763,1.9772,1.9778,1.9766,1.9642,0,0,0,0,0,1.9098,1.9166,1.917,1.9192,1.9314,1.9399,1.9415,1.9446,1.9429,1.9463,1.9503,1.9508,1.9672,1.964,1.9662,1.9702,1.9867,1.9872,1.9877,1.9881,1.989,1.9896,0,0,0,0,0,0,1.9107,1.9134,1.9168,1.9242,1.927,1.9397,1.9374,1.9385,1.9426,1.9425,1.95,1.951,1.9538,1.9632,1.965,1.9688,1.9636,1.9869,1.9873,1.9877,1.9884,1.9891,1.9897,0,0,0,0,0,1.9114,1.9136,1.9323,1.9241,1.9265,1.9323,1.9372,1.9381,1.9413,1.9476,1.9486,1.9433,1.9539,1.9557,1.9643,1.9678,1.9623,1.963,1.9872,1.9875,1.9879,1.9888,0,0,0,0,0,0,1.9119,1.9144,1.9329,1.9337,1.9218,1.9317,1.9333,1.9377,1.9461,1.9472,1.941,1.9409,1.954,1.9553,1.9567,1.9673,1.9613,1.962,1.9624,1.9874,1.9877,1.988,0,0,0,0,0,0,1.9133,1.9151,1.9333,1.9302,1.9307,1.931,1.9325,1.9404,1.9462,1.9391,1.9393,1.9409,1.9519,1.9552,1.9562,1.9684,1.9605,1.9611,1.9616,1.9619,1.9877,1.9879,0,0,0,0,0,0,1.9141,1.9157,1.93,1.9304,1.9309,1.9406,1.938,1.9504,1.9435,1.9387,1.943,1.9428,1.9517,1.9529,1.9559,1.9676,1.9682,1.9605,1.9609,1.9613,1.9615,0,0,0,0,0,0,0,1.9148,1.9034,1.9279,1.9306,1.931,1.9415,1.9418,1.942,1.9435,1.9433,1.9431,1.9429,1.9566,1.9574,1.9581,1.9669,0,0,1.9604,1.9607,0,0,0,0,0,0,0,0,1.9028,1.9032,1.9279,1.9281,1.9282,1.9416,1.9418,1.942,1.9435,1.9433,1.9431,1.943,1.9568,1.9574,1.958,0,0,0,0,0,0,0,0,0,0,0,0,0,0,0,1.9279,1.928,0,1.9416,1.9418,1.9419,1.9434,1.9433,1.9432,1.943,1.957,1.9575,1.958,0,0,0,0,0,0,0,0,0,0,0,0,0,0,0,0,0,0,0,0,0,0,0,0,0,0,0,0,0,0,0,0,0,0,0,0,0,0,0,0,0,0,0,0,0,0,0,0,0,0,0,0,0,0,0,0,0,0,0,0,0,0,0,0,0,0,0,0,0]}],[{"header":{"parameterUnit":"kt","parameterCategory":2,"dx":1,"dy":1,"la1":30.253999710083008,"la2":30.299108505249023,"lo1":-89.0895004272461,"lo2":-89.04439544677734,"nx":28,"ny":28,"refTime":"2022-10-30T21:00:00:Z","depth":0,"parameterNumber":2,"parameterNumberName":"V-component_of_WINDS"},"data":[4.9493,4.9469,4.9439,4.9397,4.9362,4.9327,4.9304,4.9271,4.9236,4.9188,4.9154,4.9119,4.907,4.9019,4.8979,4.8963,4.8947,4.896,4.8939,4.8912,4.8906,4.89,4.8904,4.8958,4.8958,4.8971,4.8971,4.8972,4.9473,4.944,4.941,4.9359,4.9332,4.9301,4.9257,4.9235,4.9203,4.9161,4.9127,4.908,4.9039,4.8984,4.8938,4.8922,4.8903,4.8912,4.8911,4.8903,4.8873,4.8878,4.8928,4.8928,4.8927,4.8927,4.8927,4.8927,4.9428,4.9415,4.9367,4.9333,4.93,4.9266,4.9247,4.9205,4.9173,4.9125,4.9094,4.9056,4.9005,4.8935,4.8903,4.887,4.8855,4.8853,4.8852,4.8852,4.8855,4.8836,4.8861,4.8861,4.8861,4.886,4.886,0,4.9384,4.936,4.9329,4.9289,4.9263,4.9228,4.9191,4.9178,4.9114,4.909,4.9052,4.9024,4.8969,4.8927,4.8877,4.8844,4.8806,4.8799,4.8797,4.8811,4.8829,4.8816,4.8766,4.8798,4.8798,4.8797,4.8797,4.8797,4.9333,4.9323,4.9259,4.9241,4.9213,4.9185,4.9162,4.9107,4.9083,4.9028,4.9018,4.8977,4.8941,4.8883,4.8831,4.8789,4.8769,4.8785,4.8763,4.8776,4.8766,4.8766,4.8763,4.879,4.8791,4.8791,4.8792,0,4.9307,4.9258,4.9232,4.9169,4.9153,4.9144,4.9088,4.9072,4.9033,4.9005,4.8995,4.8933,4.8896,4.8842,4.8788,4.8761,4.8738,4.8722,4.8754,4.8747,4.8753,4.8753,4.8788,4.8789,4.8735,4.8736,4.8736,0,4.9243,4.9231,4.9158,4.9146,4.913,4.9075,4.906,4.9026,4.8983,4.8961,4.8911,4.8891,4.8826,4.8796,4.8756,4.8728,4.8719,4.8695,4.8684,4.8698,4.8701,4.8683,4.8679,4.8664,4.8664,4.8663,4.8663,0,4.9204,4.9153,4.9133,4.9112,4.9044,4.9035,4.9006,4.8958,4.8935,4.8897,4.8881,4.884,4.8817,4.8785,4.8733,4.872,4.87,4.8671,4.8675,4.8676,4.8672,4.8673,4.872,4.8663,4.8663,4.8663,4.8663,0,4.9144,4.9109,4.9089,4.9029,4.9018,4.9004,4.8961,4.8938,4.8891,4.8865,4.8834,4.8794,4.8769,4.8743,4.8706,4.8703,4.8682,4.8657,4.8657,4.8649,4.8622,4.8652,4.8705,4.8707,4.8644,4.8644,4.8644,0,4.9111,4.9078,4.9031,4.9012,4.8989,4.8935,4.8918,4.8879,4.8844,4.8817,4.8777,4.8747,4.8718,4.87,4.8689,4.8646,4.865,4.8644,4.8601,4.86,4.8612,4.8661,4.8681,4.87,4.8641,4.8641,4.8641,0,4.908,4.8998,4.8999,4.8972,4.8914,4.8895,4.8877,4.8836,4.8821,4.8784,4.8765,4.8724,4.8698,4.8671,4.8635,4.8626,4.8645,4.8599,4.8597,4.8607,4.8637,4.8655,4.8659,4.8622,4.8622,4.8623,4.8639,0,4.8994,4.8972,4.8971,4.8918,4.8896,4.8882,4.8827,4.881,4.8777,4.874,4.8714,4.8669,4.8626,4.8618,4.8586,4.8585,4.8575,4.8549,4.8519,4.8553,4.8556,4.8558,4.8518,4.8516,4.8515,4.8515,0,0,4.8973,4.894,4.889,4.8872,4.8849,4.8794,4.8783,4.8755,4.8699,4.8683,4.8667,4.8602,4.8566,4.8539,4.8545,4.853,4.8523,4.8514,4.8538,4.8541,4.8543,4.8548,4.8551,4.8513,4.8512,4.8512,4.8512,0,4.8929,4.8898,4.889,4.8858,4.881,4.8772,4.877,4.8712,4.8688,4.8664,4.8616,4.8594,4.8546,4.8512,4.8489,4.8517,4.8481,4.8508,4.854,4.853,4.8534,4.8537,4.8544,4.8547,4.8509,4.8509,4.8509,0,4.8886,4.8844,4.8835,4.8784,4.8752,4.8731,4.8685,4.8666,4.8648,4.8587,4.8564,4.8531,4.8483,4.8467,4.8458,4.8442,4.8445,4.8436,4.8441,4.8438,4.8425,4.843,4.8435,4.8373,4.8373,4.8373,0,0,4.8856,4.8836,4.8774,4.8771,4.8754,4.8698,4.8682,4.8647,4.8607,4.8591,4.8548,4.8509,4.8479,4.8461,4.8431,4.8422,4.8406,4.8422,4.8428,4.8434,4.8434,4.8422,4.8427,4.8372,4.8372,4.8372,0,0,4.8841,4.8769,4.8744,4.8734,4.8698,4.8635,4.8635,4.8602,4.857,4.8565,4.8505,4.8493,4.8477,4.8447,4.8441,4.8419,4.839,4.8391,4.8439,4.8446,4.8452,4.8459,4.8387,0,0,0,0,0,4.8768,4.8778,4.8756,4.8746,4.8681,4.8648,4.8639,4.8591,4.8571,4.8571,4.853,4.8495,4.843,4.8424,4.8414,4.8421,4.836,4.8362,4.8364,4.8424,4.8432,4.8439,0,0,0,0,0,0,4.8764,4.8753,4.8755,4.8695,4.8679,4.8647,4.8602,4.8589,4.8569,4.8563,4.8504,4.8493,4.845,4.8425,4.8417,4.8425,4.839,4.8361,4.8363,4.8364,4.8427,4.8433,4.8439,0,0,0,0,0,4.8761,4.8751,4.8661,4.8694,4.8681,4.8619,4.8602,4.859,4.8574,4.8511,4.8499,4.8539,4.8452,4.8442,4.842,4.843,4.8395,4.8392,4.8362,4.8363,4.8365,4.843,0,0,0,0,0,0,4.8758,4.874,4.8657,4.8651,4.8687,4.862,4.8607,4.8592,4.8522,4.8511,4.8544,4.854,4.8453,4.8445,4.8438,4.8434,4.8399,4.8396,4.8394,4.8363,4.8364,4.8365,0,0,0,0,0,0,4.8745,4.8736,4.8654,4.8648,4.8641,4.8621,4.861,4.8585,4.8522,4.8559,4.8553,4.8543,4.8464,4.8447,4.8441,4.8405,4.8402,4.8399,4.8397,4.8396,4.8364,4.8365,0,0,0,0,0,0,4.874,4.8732,4.8649,4.8644,4.8638,4.8568,4.8598,4.8534,4.8519,4.8563,4.8516,4.8515,4.8467,4.846,4.8444,4.8411,4.8406,4.8402,4.84,4.8399,4.8398,0,0,0,0,0,0,0,4.8736,4.8801,4.8692,4.8641,4.8635,4.8597,4.8595,4.8594,4.8519,4.8517,4.8516,4.8515,4.8417,4.8414,4.8411,4.8415,0,0,4.8402,4.8401,0,0,0,0,0,0,0,0,4.8803,4.8802,4.8692,4.8691,4.8689,4.8597,4.8595,4.8594,4.8518,4.8518,4.8517,4.8516,4.8416,4.8414,4.8411,0,0,0,0,0,0,0,0,0,0,0,0,0,0,0,4.8692,4.8691,0,4.8596,4.8595,4.8594,4.8518,4.8518,4.8517,4.8516,4.8416,4.8414,4.8412,0,0,0,0,0,0,0,0,0,0,0,0,0,0,0,0,0,0,0,0,0,0,0,0,0,0,0,0,0,0,0,0,0,0,0,0,0,0,0,0,0,0,0,0,0,0,0,0,0,0,0,0,0,0,0,0,0,0,0,0,0,0,0,0,0,0,0,0,0]}]]]